This is the latest recevied weather packets stored in our database for station/object KJ4OVR-WX. If no packets are shown the sender has not sent any weather packets the latest 10 day(s).
| Time | Temp. | Humidity | Pressure | Rain* | Wind** | Luminosity | Snow |
|---|---|---|---|---|---|---|---|
| 1777843845 | 21.67° C | 43% | 1016.6 hPa | 0 mm | - | - | - |
| 1777843546 | 21.67° C | 43% | 1016.7 hPa | 0 mm | - | - | - |
| 1777843244 | 21.67° C | 43% | 1016.7 hPa | 0 mm | - | - | - |
| 1777842945 | 21.67° C | 43% | 1016.7 hPa | 0 mm | - | - | - |
| 1777842645 | 21.11° C | 42% | 1016.8 hPa | 0 mm | - | - | - |
| 1777842345 | 21.67° C | 43% | 1016.8 hPa | 0 mm | - | - | - |
| 1777842045 | 21.67° C | 43% | 1016.8 hPa | 0 mm | - | - | - |
| 1777841163 | 21.67° C | 43% | 1017 hPa | 0 mm | - | - | - |
| 1777840546 | 21.67° C | 43% | 1017.3 hPa | 0 mm | - | - | - |
| 1777840245 | 21.11° C | 43% | 1017.4 hPa | 0 mm | - | - | - |
| 1777839945 | 21.11° C | 43% | 1017.5 hPa | 0 mm | - | - | - |
| 1777839645 | 21.11° C | 42% | 1017.7 hPa | 0 mm | - | - | - |
| 1777839346 | 21.11° C | 43% | 1017.7 hPa | 0 mm | - | - | - |
| 1777838746 | 21.11° C | 43% | 1017.9 hPa | 0 mm | - | - | - |
| 1777836647 | 20.56° C | 43% | 1018.7 hPa | 0 mm | - | - | - |
| 1777836407 | 21.11° C | 43% | 1018.8 hPa | 0 mm | - | - | - |
| 1777836047 | 21.11° C | 43% | 1018.8 hPa | 0 mm | - | - | - |
| 1777835447 | 20.56° C | 43% | 1019.2 hPa | 0 mm | - | - | - |
| 1777835147 | 20° C | 43% | 1019.2 hPa | 0 mm | - | - | - |
| 1777834847 | 20.56° C | 43% | 1019.2 hPa | 0 mm | - | - | - |
| 1777833648 | 20° C | 45% | 1019.5 hPa | 0 mm | - | - | - |
| 1777833364 | 20° C | 43% | 1019.6 hPa | 0 mm | - | - | - |
| 1777833048 | 19.44° C | 44% | 1019.7 hPa | 0 mm | - | - | - |
| 1777832148 | 19.44° C | 43% | 1019.8 hPa | 0 mm | - | - | - |
| 1777831548 | 18.89° C | 43% | 1020 hPa | 0 mm | - | - | - |
* Rain latest hour (hover to see other rain measurements)
** Current wind speed in m/s (hover to see current wind gust speed)